GEFSNGP_500_meanwind_102.txt.gz
Wind_Speed
12 13 15 16 17 18 18 18 20 19 20 21 23 24 23 22 21 19 19 19 18 18 18 17 16 16 15 14 13 12 12 12 12 13 13 13 14 15 15 16 16 15 15 15
13 14 16 17 17 18 19 20 21 21 21 21 23 23 24 23 21 20 20 20 20 19 19 19 18 17 16 16 15 14 13 13 13 13 13 14 14 15 15 16 16 16 16 15
15 16 18 17 18 20 21 21 23 23 23 23 22 22 23 23 22 22 21 22 21 21 21 20 20 19 18 17 17 16 15 14 14 14 14 14 14 15 15 15 16 16 16 16
18 18 19 17 20 22 23 23 24 25 24 23 22 22 23 24 23 23 22 22 23 22 22 22 21 20 20 19 18 18 17 16 16 15 15 15 15 15 15 15 16 16 16 16
21 22 21 21 22 23 23 25 26 26 26 24 23 23 25 25 24 23 23 23 23 24 24 23 23 22 21 21 20 20 19 18 17 17 16 16 16 15 16 16 16 16 16 16
23 24 24 24 25 25 26 28 28 28 27 25 24 24 25 26 25 24 25 24 24 25 25 25 25 25 24 23 22 21 21 20 19 19 18 17 17 17 16 17 17 17 16 16
26 26 26 28 28 28 28 30 31 31 30 29 27 27 27 27 27 26 26 26 26 26 26 26 26 26 26 25 24 23 23 22 22 21 20 19 19 18 18 18 18 17 17 17
30 30 31 32 32 32 33 33 34 34 33 32 31 31 30 29 29 29 29 29 29 28 28 28 28 28 28 27 26 26 25 24 24 23 22 21 21 20 20 19 19 18 18 18
33 33 35 36 37 37 37 37 37 38 38 36 35 34 34 33 32 32 31 31 32 31 30 30 30 30 30 29 29 28 27 27 26 25 24 23 23 22 21 21 20 20 20 19
37 36 39 40 41 41 41 41 42 42 42 41 40 38 38 37 36 35 34 34 34 34 33 33 32 32 32 32 31 30 29 29 28 27 26 26 25 24 23 23 22 22 21 21
41 41 42 44 45 45 45 45 45 45 45 45 44 42 41 40 39 39 38 37 37 36 36 35 35 34 34 34 33 32 32 31 30 29 28 27 27 26 25 24 24 23 23 22
45 45 46 47 48 48 48 48 48 48 47 46 46 45 44 43 42 42 41 40 40 39 39 38 37 36 36 35 35 34 33 33 32 31 30 29 28 28 27 26 25 25 24 24
48 48 49 49 50 50 51 50 50 50 49 48 47 47 46 45 44 44 43 43 42 42 41 40 40 39 37 37 36 36 35 34 33 33 32 31 30 29 28 28 27 27 26 25
50 50 51 51 51 51 52 52 52 51 51 50 49 49 48 47 46 46 45 45 44 44 43 42 41 41 40 39 38 37 36 36 35 34 33 32 32 31 30 29 29 28 28 27
52 52 52 52 52 52 53 53 53 52 51 51 50 50 49 48 47 47 47 47 47 46 45 44 43 42 42 41 40 39 38 37 36 35 34 34 33 32 32 31 30 30 29 29
53 53 53 53 53 53 53 53 52 52 51 51 50 50 50 50 49 48 48 48 48 47 46 46 45 44 44 43 42 41 40 39 38 36 35 35 34 34 33 33 32 31 31 31
53 53 53 53 53 52 52 52 52 51 51 50 50 50 50 50 50 50 49 49 49 48 48 47 47 46 46 45 45 44 42 41 40 38 37 36 36 35 34 34 33 33 32 32
52 52 52 52 52 51 51 51 51 51 50 50 50 50 50 50 50 50 50 50 50 49 48 48 48 48 48 47 46 46 45 44 42 41 39 38 37 37 36 35 35 35 34 34
52 52 52 51 51 51 51 50 50 49 49 48 48 49 49 49 50 50 49 50 50 50 49 49 49 49 48 48 48 47 46 46 45 43 42 40 39 39 38 37 36 36 36 35
52 52 52 51 51 51 51 50 49 48 47 47 47 47 47 48 48 49 49 49 49 49 49 49 49 49 49 48 48 48 47 47 47 46 44 43 42 41 40 39 38 38 37 37
51 51 51 50 50 49 49 49 48 47 47 47 47 46 46 46 47 47 47 47 47 47 48 48 49 49 49 49 49 48 48 48 48 48 46 45 44 43 42 41 40 40 39 39
52 51 50 49 48 47 47 47 47 47 47 46 46 46 46 45 45 45 44 44 45 45 46 46 47 48 49 50 50 49 49 50 49 49 48 47 46 45 44 43 43 42 42 42
50 49 48 47 47 46 46 46 46 46 46 46 45 45 44 44 43 43 42 42 43 43 44 44 45 46 47 48 49 49 48 49 49 49 49 48 47 46 45 45 44 44 43 43
47 47 46 46 45 45 45 45 45 45 45 45 44 43 42 42 41 41 41 40 40 41 42 42 43 44 45 46 47 48 48 48 48 48 48 47 47 47 46 45 44 44 44 44
45 45 45 44 44 44 44 44 43 42 42 41 41 40 39 39 39 39 39 38 39 39 40 41 41 42 44 45 46 46 47 48 48 47 48 47 47 46 46 46 45 44 44 44
44 43 43 43 43 43 42 41 40 39 38 38 37 37 37 36 35 36 36 36 37 37 37 38 39 40 41 42 42 43 44 45 46 47 47 47 47 47 46 45 44 44 44 44
43 43 42 41 41 40 39 38 38 37 36 36 35 34 33 33 32 32 31 32 33 34 35 36 37 37 37 38 40 40 41 42 43 44 45 45 46 45 44 43 42 42 42 42

GEFSNGP_500_meanwind_108.txt.gz
Wind_Speed
7 8 9 9 9 10 11 11 13 13 14 15 16 17 17 17 17 17 16 15 15 16 17 17 17 17 17 17 17 16 16 15 14 13 12 12 11 11 11 11 11 11 11 11
10 11 12 11 12 13 13 14 14 15 15 16 17 17 18 18 18 18 17 17 17 17 18 19 19 19 19 19 19 18 18 17 17 16 15 14 13 12 12 11 11 11 11 11
12 13 13 13 14 16 16 16 16 17 17 18 18 19 19 19 19 18 19 19 19 19 20 21 21 21 21 21 21 20 20 19 19 18 17 16 15 14 13 12 12 12 11 11
14 14 14 14 16 16 17 17 18 19 20 20 20 21 21 21 21 20 20 20 20 21 21 22 22 22 23 23 23 23 22 21 21 20 19 18 17 16 15 14 13 13 12 12
17 17 16 17 18 19 19 19 20 21 22 22 23 24 24 24 23 23 24 24 23 23 23 23 24 24 24 25 25 24 24 23 23 22 22 21 19 18 17 16 15 14 14 13
20 20 21 21 21 22 24 24 24 24 25 25 26 26 26 27 26 26 26 27 27 26 25 26 26 26 26 27 26 26 26 26 25 24 24 23 22 21 19 18 17 16 15 15
24 24 25 25 25 26 27 28 28 29 29 29 29 30 30 29 29 29 29 29 29 29 29 29 29 29 28 29 29 29 29 28 28 27 26 25 24 23 22 21 20 19 18 17
27 28 28 28 29 30 31 32 32 32 33 33 34 34 34 34 33 33 33 33 33 33 32 32 33 32 31 31 31 32 31 30 30 29 29 28 26 26 25 23 22 21 20 19
30 30 31 32 32 33 34 35 35 36 36 37 37 38 38 38 38 37 37 37 37 36 35 36 36 35 34 34 34 34 33 33 32 32 31 30 29 28 27 26 24 23 22 21
33 33 34 35 36 37 37 38 39 39 40 41 42 42 42 41 41 41 40 40 40 40 39 38 38 38 37 37 36 36 35 35 35 34 33 32 31 30 29 28 26 25 24 23
37 37 38 39 40 40 40 41 42 43 43 44 45 45 46 45 45 44 43 43 43 42 41 40 40 40 40 40 39 38 38 37 37 36 36 34 33 32 31 30 29 27 26 25
39 40 42 42 43 44 44 45 45 46 46 47 47 48 48 48 47 47 46 45 45 44 43 42 42 42 42 42 41 41 40 39 39 39 38 37 35 34 33 32 31 30 28 27
42 43 44 45 46 47 48 48 49 49 49 49 49 49 49 49 49 49 48 46 45 45 45 44 44 43 43 44 43 43 42 42 41 41 40 39 38 36 35 34 33 32 31 29
45 46 47 48 49 50 50 50 50 50 50 50 50 50 49 49 49 49 49 48 47 47 47 47 46 45 45 46 46 45 44 44 43 43 42 41 40 38 37 36 35 34 33 32
48 48 49 50 50 50 51 51 51 51 51 51 51 50 49 48 48 49 48 48 48 48 48 48 48 47 47 47 48 47 46 45 45 45 45 43 42 41 39 38 37 36 35 34
50 50 50 51 51 52 52 52 52 52 52 51 51 51 50 49 48 48 49 49 48 48 48 49 48 48 48 49 49 49 49 47 47 47 47 46 44 43 42 40 39 37 36 35
51 51 51 52 52 52 53 53 53 52 52 52 51 51 50 50 49 48 48 49 48 48 48 49 49 49 49 49 50 50 51 50 49 49 48 47 46 45 44 42 41 39 38 37
53 53 53 53 54 54 54 54 54 54 53 52 52 52 51 50 50 49 48 48 48 47 47 48 48 48 48 48 49 50 51 52 52 51 50 50 48 47 46 44 43 41 40 39
54 54 54 54 54 55 55 54 54 53 52 52 52 51 50 50 50 49 48 47 47 46 46 46 46 46 46 47 48 49 50 52 52 52 52 52 51 50 48 46 45 44 42 41
55 55 55 54 54 54 54 54 53 52 51 52 51 50 49 49 48 47 46 46 46 46 45 45 44 44 44 45 46 48 49 51 51 52 52 52 52 51 50 48 47 46 45 43
55 55 54 54 53 53 53 53 52 51 50 50 50 50 48 47 46 46 45 45 44 45 44 44 43 44 44 44 44 46 47 49 50 51 52 52 52 52 51 49 48 47 46 45
54 53 53 52 52 52 51 52 51 51 50 49 49 48 47 46 45 45 44 44 43 43 42 42 43 43 43 43 43 44 45 46 48 49 50 51 52 52 51 50 48 48 47 46
52 52 52 51 51 50 49 49 49 49 49 48 47 46 46 45 45 44 43 42 41 41 41 41 41 42 41 41 42 42 44 45 46 47 48 50 51 52 51 50 50 49 48 47
51 50 50 50 50 49 48 47 47 47 47 46 45 45 45 44 43 43 42 41 41 40 40 40 40 39 38 38 39 40 41 43 44 45 47 48 50 51 51 50 50 51 50 49
50 49 49 49 48 47 47 46 46 45 45 45 44 44 43 43 42 41 41 41 40 39 38 37 36 35 35 34 34 36 37 39 41 43 44 46 47 48 49 50 50 50 50 49
48 47 47 47 46 46 45 45 44 44 44 44 43 42 42 41 41 40 40 39 37 36 33 32 32 32 31 31 31 33 34 36 38 39 41 43 45 46 47 48 50 50 49 48
46 45 45 44 44 44 43 43 43 42 42 41 41 40 40 39 38 38 36 35 33 31 29 28 28 28 29 29 29 30 32 34 35 37 39 40 42 43 43 45 46 47 47 47

GEFSNGP_500_meanwind_114.txt.gz
Wind_Speed
4 5 5 6 7 8 8 8 8 9 10 11 12 13 14 14 15 16 16 17 17 18 18 18 19 19 20 20 20 20 20 20 20 20 20 20 19 19 18 17 16 15 14 13
5 6 6 7 8 9 9 10 10 11 12 14 15 15 16 17 17 17 18 19 19 20 20 21 21 21 22 22 22 22 22 22 23 23 22 22 22 21 20 19 18 17 16 15
6 8 9 9 10 11 11 12 13 14 15 16 17 18 19 19 20 19 20 21 22 22 23 23 23 24 24 24 24 25 25 25 25 25 25 25 24 24 23 22 21 20 19 17
8 10 10 11 12 12 13 14 14 16 17 18 19 20 21 22 22 23 23 23 24 25 25 26 26 26 26 27 27 27 27 27 27 27 27 27 27 26 26 24 23 22 21 20
10 12 12 14 14 14 15 16 17 18 19 21 22 23 24 24 25 26 26 26 27 27 28 28 29 29 29 30 30 30 30 30 30 30 30 30 29 28 28 27 26 25 24 23
13 15 15 16 17 17 18 18 20 21 22 24 25 26 26 28 28 29 30 31 31 31 31 31 32 32 32 32 33 33 33 33 33 32 32 32 32 31 30 30 29 28 26 25
17 18 19 19 20 21 22 22 24 24 25 27 28 29 30 31 32 33 34 34 34 35 36 36 36 36 36 36 36 36 36 36 35 35 35 34 34 34 33 32 31 31 29 28
20 21 22 23 23 24 25 27 27 28 30 31 32 33 34 35 36 37 38 39 39 39 40 40 40 40 40 40 40 39 39 39 39 38 38 37 36 36 35 35 34 33 32 30
23 24 25 26 26 27 28 30 31 32 33 35 36 37 38 39 40 41 42 43 43 43 43 44 44 44 43 43 43 42 42 42 42 41 40 39 38 37 37 37 36 35 34 33
27 27 28 29 29 31 32 33 34 35 37 38 40 41 43 43 44 45 46 47 48 48 47 47 47 46 46 46 45 45 45 44 44 43 42 41 40 40 39 38 38 37 36 35
29 30 31 32 33 34 35 36 38 39 41 42 43 45 46 47 48 48 49 50 50 51 50 49 49 48 48 48 48 47 46 46 45 45 45 44 42 41 41 40 40 39 38 37
32 33 34 35 36 37 39 40 41 43 44 45 47 48 49 50 50 50 50 51 51 51 52 51 50 49 49 49 49 48 47 47 47 47 47 47 46 44 44 43 42 42 40 39
36 37 37 38 39 41 42 44 45 47 48 48 49 50 51 51 51 51 52 52 52 52 52 52 51 50 50 50 50 49 48 48 48 48 49 49 48 47 46 45 44 43 42 41
39 40 40 41 43 44 45 47 48 49 50 51 52 52 53 53 53 53 54 54 54 54 53 52 51 50 50 50 50 50 50 50 49 49 49 50 50 48 47 46 45 45 44 43
42 43 43 44 45 46 48 49 50 51 52 53 54 54 54 55 55 55 55 55 55 54 54 53 52 51 50 50 50 50 50 50 50 50 49 49 50 49 48 47 47 46 46 45
44 45 46 47 48 49 50 51 52 53 54 54 55 55 56 57 58 58 57 56 56 55 54 53 52 51 51 50 50 50 49 49 50 49 48 47 48 49 49 49 48 47 47 47
46 47 48 49 50 51 52 53 54 55 56 56 57 58 58 58 58 58 57 57 56 55 54 53 52 51 51 50 50 49 49 48 48 48 47 47 47 48 50 50 49 49 49 49
49 50 51 52 53 53 54 55 56 57 58 58 58 58 58 58 58 58 57 56 55 54 53 53 53 52 51 50 49 48 48 47 46 46 46 46 47 48 49 50 49 49 50 51
51 52 52 53 54 55 56 56 57 58 58 59 59 59 59 59 59 58 57 56 55 54 52 52 52 51 50 49 49 48 46 46 46 45 46 46 47 48 49 50 50 50 51 52
53 53 54 55 56 57 58 58 59 59 59 60 60 60 60 59 59 58 56 55 55 55 53 51 50 50 49 48 48 47 46 45 45 45 45 46 47 48 49 50 50 50 52 53
55 55 56 57 58 58 59 59 60 60 60 61 61 60 59 58 58 57 56 55 53 53 52 51 50 50 49 48 46 46 45 45 45 44 44 44 45 46 48 49 50 49 50 52
57 57 58 59 59 59 60 60 61 61 61 60 60 59 58 58 57 56 55 54 53 52 51 50 49 48 47 47 45 45 44 43 43 43 42 43 43 44 45 47 47 47 48 49
59 59 60 60 61 61 60 61 61 61 60 60 59 58 58 56 56 55 53 52 52 51 50 49 48 46 45 45 44 42 41 40 40 40 39 40 40 40 41 42 44 45 47 48
60 60 61 61 61 61 61 60 60 60 59 58 57 56 55 54 53 53 52 51 50 49 48 47 45 44 43 42 41 40 39 38 38 37 37 37 36 37 38 39 40 42 44 45
60 61 61 61 60 60 60 59 58 57 56 55 54 53 53 52 52 51 50 49 47 46 45 43 42 42 41 40 39 38 37 36 35 35 34 33 33 34 35 36 37 39 40 42
61 60 60 59 59 58 57 57 56 54 53 52 50 50 50 49 49 48 48 46 44 44 42 41 39 39 39 37 35 34 33 32 31 31 31 30 30 30 32 33 35 37 38 40
59 58 57 56 56 55 54 53 52 51 50 49 47 47 47 47 46 45 45 43 42 41 40 39 38 37 35 34 32 30 28 27 27 27 27 27 27 27 29 30 33 35 36 37

GEFSNGP_500_meanwind_120.txt.gz
Wind_Speed
5 4 4 3 2 2 1 2 3 5 5 7 8 9 11 12 12 13 14 14 15 15 16 17 18 19 20 21 22 22 23 23 24 24 25 25 25 25 25 24 24 23 23 22
5 4 4 3 2 2 3 4 5 6 7 8 10 11 12 12 13 14 15 16 17 18 18 19 20 21 22 23 24 24 25 26 26 27 27 27 27 28 27 27 26 26 25 24
5 4 4 3 3 4 5 6 7 8 9 10 11 12 13 14 14 15 16 17 18 20 20 21 22 24 25 26 26 27 28 29 29 29 30 30 30 30 30 30 29 28 27 26
6 6 6 5 6 6 7 8 9 10 11 12 13 14 15 16 17 18 19 19 20 21 22 23 24 26 27 28 29 30 31 32 32 32 32 33 33 33 32 32 32 31 30 29
7 8 7 7 8 9 9 9 10 12 13 14 15 16 18 19 20 21 21 22 24 25 26 27 28 29 30 32 33 34 35 35 36 36 35 36 36 35 35 35 34 34 33 32
10 10 10 10 10 11 12 12 13 14 16 17 18 19 20 21 23 24 25 26 27 29 30 30 31 32 34 35 36 38 39 39 39 39 39 39 39 38 38 37 37 37 36 35
13 13 13 13 13 14 15 15 16 17 19 20 21 23 24 25 26 27 28 30 31 32 33 34 35 36 38 39 40 40 41 41 41 41 41 41 41 41 41 40 40 39 38 37
15 16 16 16 16 17 18 19 19 20 21 22 24 25 26 28 29 31 32 33 34 35 36 38 39 40 40 41 42 43 43 43 43 43 43 43 43 43 42 42 42 41 41 40
18 18 18 19 19 20 21 21 22 23 24 25 27 28 30 31 32 34 35 36 37 39 40 41 42 42 43 44 45 45 45 45 45 45 45 45 44 44 43 43 42 42 42 41
21 21 22 22 22 23 23 24 25 25 27 28 29 31 33 34 35 36 37 39 40 41 43 44 44 44 46 46 47 47 47 46 46 46 45 45 44 44 43 43 43 43 43 42
25 25 25 25 25 26 26 27 27 28 30 31 33 34 36 36 37 39 40 41 42 43 45 46 47 47 48 48 48 48 48 47 47 47 47 46 45 44 44 43 44 44 43 42
28 28 28 28 28 29 29 30 31 32 33 34 35 36 38 39 40 41 42 43 44 46 47 48 49 49 49 49 49 50 49 49 48 48 48 48 47 46 45 44 44 44 44 44
31 31 31 31 31 32 33 33 34 35 36 37 37 38 39 41 42 43 44 45 47 48 49 49 50 50 50 51 51 51 51 50 50 50 49 49 48 48 48 47 45 45 45 45
33 32 32 33 34 35 35 36 36 37 38 39 40 40 42 43 44 45 47 48 49 49 50 50 51 51 51 52 52 52 51 51 52 51 50 50 49 49 48 48 47 46 47 47
34 34 34 35 36 36 37 38 38 39 40 41 42 42 44 45 46 47 49 50 50 51 51 52 52 52 52 53 53 53 53 52 52 52 51 50 49 49 48 47 46 46 47 48
36 36 36 37 37 38 38 39 39 40 42 43 44 45 46 47 48 49 50 51 52 52 53 53 53 53 54 54 54 54 54 53 52 51 50 49 49 48 48 47 46 45 45 47
37 37 38 38 38 39 40 41 42 43 44 45 46 47 48 49 50 51 52 52 53 54 54 55 55 55 55 56 55 54 53 52 51 51 50 50 49 49 48 47 46 44 44 45
39 39 40 40 41 41 42 43 44 45 46 47 49 50 51 52 52 53 53 54 54 55 55 56 56 57 56 56 55 53 52 52 51 50 49 49 48 48 48 47 46 45 44 44
41 41 42 43 43 44 45 45 46 48 49 50 51 52 53 54 54 54 55 55 56 56 57 57 58 57 57 56 55 54 53 52 50 49 49 48 48 48 47 45 45 45 44 43
43 43 44 45 45 46 47 48 49 50 52 53 54 54 55 55 56 56 56 57 58 58 59 58 58 57 56 55 54 53 51 51 50 49 49 49 47 46 45 44 43 43 43 43
44 45 46 47 48 49 50 51 52 53 54 55 55 56 56 57 57 58 58 58 58 59 59 58 57 56 56 55 53 51 50 49 49 49 48 47 45 44 43 42 41 40 40 41
47 47 48 49 50 51 52 54 54 55 55 56 57 58 58 58 58 59 59 59 59 59 58 57 56 55 54 52 51 50 50 49 48 47 45 44 42 41 40 39 38 38 38 39
49 50 51 51 53 54 55 56 56 57 57 58 58 59 59 59 59 59 58 58 58 58 57 55 54 53 51 50 48 48 48 47 45 43 42 41 39 38 37 36 36 35 34 35
53 53 54 54 55 56 57 57 58 58 59 59 59 59 59 59 58 58 58 57 57 56 54 53 52 51 49 48 47 46 45 44 43 41 40 39 37 36 34 34 33 32 31 31
56 56 57 57 58 58 58 59 59 59 60 60 59 59 58 58 57 56 56 55 54 52 51 50 50 48 47 45 44 44 43 42 41 40 38 36 34 32 32 31 30 30 28 28
58 58 58 59 59 59 59 60 60 60 60 59 58 57 57 56 55 54 53 52 50 49 48 47 46 45 44 43 42 42 41 40 38 37 35 33 31 30 29 28 27 27 26 26
59 59 59 59 59 59 59 59 59 58 58 57 55 54 54 53 52 51 49 47 47 46 45 45 44 43 42 41 41 40 38 37 36 35 32 30 28 28 26 25 25 25 25 24

GEFSNGP_500_meanwind_126.txt.gz
Wind_Speed
8 8 8 7 8 8 8 8 8 9 8 8 9 9 9 10 10 10 11 11 12 12 13 14 14 15 17 18 19 20 22 23 24 25 26 27 28 28 29 29 29 29 29 29
9 9 9 8 8 8 9 9 9 10 9 9 9 9 10 10 11 11 12 12 12 13 15 16 16 17 19 20 21 23 24 25 26 27 28 29 30 31 31 31 31 31 31 31
8 9 9 8 8 9 9 10 10 10 10 9 10 10 11 11 12 12 13 13 14 15 16 17 18 19 20 22 23 24 25 27 27 28 30 31 32 33 33 33 34 34 34 34
10 10 10 8 9 10 10 10 11 11 11 11 12 13 13 13 14 14 14 14 15 16 18 19 20 21 22 24 26 27 28 29 31 32 33 34 35 35 35 36 36 36 37 36
12 12 11 10 10 11 12 12 12 13 13 13 14 14 15 15 16 16 16 17 18 19 20 21 23 24 25 26 28 29 31 32 34 35 36 36 37 38 38 38 38 39 39 39
14 14 15 12 12 13 14 14 14 15 16 16 17 17 17 18 18 19 19 20 21 22 23 24 25 27 28 29 31 32 33 35 36 37 38 38 39 40 41 41 41 41 41 40
17 17 18 15 14 16 16 15 16 17 18 19 19 20 20 20 21 22 23 23 24 25 26 27 28 30 31 33 34 35 37 38 39 40 41 41 42 42 43 43 42 42 41 41
20 21 20 18 18 19 19 19 19 20 21 21 22 22 23 23 24 25 26 27 28 28 29 30 32 33 34 35 36 38 39 41 42 42 43 43 44 44 44 44 43 43 43 42
23 23 22 21 21 21 22 22 22 23 23 24 25 25 26 26 27 28 28 29 30 31 32 34 35 36 37 38 39 40 42 43 43 44 44 44 45 45 45 45 45 44 43 43
27 26 25 25 25 25 25 25 25 26 27 27 28 28 29 29 30 30 31 32 33 34 35 37 38 39 40 41 42 43 44 44 45 45 45 45 46 46 46 46 46 45 45 44
30 29 29 28 28 28 28 28 29 29 30 30 31 31 32 32 33 33 34 35 36 37 38 39 40 41 42 44 45 45 46 45 46 46 47 47 47 47 47 47 47 47 46 46
33 33 33 32 31 31 32 32 32 32 32 33 34 34 35 35 35 36 37 38 39 40 41 41 42 43 44 45 47 47 47 47 48 48 48 49 49 48 48 49 49 49 48 48
35 35 35 35 34 34 35 35 35 35 35 36 36 36 37 38 38 38 39 40 41 41 42 44 45 46 47 48 49 49 49 49 49 49 49 50 50 51 51 50 50 50 49 48
37 37 37 37 36 36 36 36 37 37 38 38 38 38 39 39 40 41 41 42 43 44 45 46 47 48 48 49 49 50 50 50 50 50 51 52 53 53 53 52 51 49 48 48
38 39 39 39 39 38 38 39 39 39 40 40 40 40 41 41 42 43 43 44 45 46 47 48 49 49 50 51 51 51 51 51 52 52 53 54 55 54 54 53 52 50 48 47
39 39 39 39 39 39 39 39 40 40 41 41 41 42 42 43 43 44 45 46 47 48 49 50 51 51 52 52 53 53 53 54 54 55 55 55 55 55 54 53 52 51 49 48
40 39 40 40 40 40 40 40 40 40 41 42 42 42 43 44 44 45 47 48 49 50 51 52 53 53 54 54 54 55 55 56 57 57 56 56 56 56 55 54 52 51 49 48
39 40 40 40 40 40 41 41 41 42 42 42 43 44 45 46 46 48 49 50 51 52 53 54 54 55 55 56 57 57 58 58 58 58 57 57 57 56 55 53 52 51 49 48
40 41 41 41 41 41 42 42 42 43 44 44 45 46 47 48 49 50 51 52 53 54 55 55 56 57 57 58 58 59 59 59 59 58 58 57 57 56 54 53 51 50 49 49
42 42 42 42 42 43 44 44 45 45 46 47 47 48 49 50 52 53 53 55 56 56 57 57 58 58 59 59 60 60 60 60 59 58 57 57 56 54 53 52 51 50 49 49
42 43 43 43 44 45 45 46 47 47 48 49 49 50 51 52 54 55 56 56 57 58 58 59 59 59 60 60 61 61 61 60 59 57 56 55 54 53 53 52 51 49 48 47
43 44 44 44 45 46 47 48 48 49 50 51 52 52 53 54 55 57 58 59 59 60 60 60 60 60 61 61 61 61 60 58 57 56 55 54 53 52 51 50 48 47 45 44
45 45 46 46 47 48 48 49 50 51 51 52 53 55 56 57 58 59 60 60 61 62 61 61 61 61 61 60 60 59 58 56 56 55 54 52 51 50 49 47 45 44 43 42
48 48 49 49 49 50 50 51 52 53 54 55 56 57 58 59 60 61 62 62 63 63 62 61 60 60 59 58 57 56 55 54 53 52 51 50 49 48 47 45 43 42 41 39
51 52 52 53 53 54 54 55 56 57 57 58 59 60 61 62 63 63 63 63 63 62 61 59 58 57 56 55 54 54 53 52 52 51 50 49 48 46 45 44 42 40 38 36
55 55 56 56 57 57 58 58 59 59 60 61 61 62 63 63 64 63 63 62 60 59 57 55 54 53 53 52 52 52 51 51 50 48 47 46 45 44 42 41 39 37 35 34
58 59 59 59 59 60 60 61 61 62 62 62 62 62 62 62 62 61 59 58 56 55 53 52 51 51 51 51 50 50 49 48 46 45 44 43 42 41 39 38 36 35 33 32

GEFSNGP_500_meanwind_132.txt.gz
Wind_Speed
10 10 11 11 11 11 11 10 9 8 8 7 7 7 7 7 6 7 8 9 9 9 10 10 10 11 11 12 13 14 15 17 18 19 20 21 22 23 25 26 27 28 29 29
9 10 11 11 10 11 11 10 9 9 8 7 7 7 7 7 7 8 9 9 10 10 11 12 12 13 13 15 16 17 18 19 20 21 22 23 25 26 28 28 29 30 31 32
11 12 11 10 9 10 11 10 10 9 9 9 8 7 7 8 8 9 10 11 11 12 13 13 14 15 16 17 18 19 20 21 22 24 25 26 28 29 30 31 32 33 34 34
13 13 12 9 10 11 11 11 11 10 10 9 8 9 9 9 10 10 11 12 12 13 14 15 16 17 18 19 20 21 22 23 25 26 28 29 31 32 33 34 35 36 37 37
15 15 13 11 11 12 12 11 11 11 10 10 11 11 10 11 12 12 13 13 14 15 16 17 19 19 20 21 22 24 25 26 28 29 31 32 33 34 35 36 37 38 39 39
16 16 14 12 13 13 13 12 12 12 12 12 12 12 12 14 14 14 15 16 16 17 18 19 21 22 23 24 25 26 28 29 30 32 33 34 35 36 38 39 40 41 41 41
17 17 15 14 14 14 14 12 13 14 14 14 14 15 16 16 17 17 17 18 19 20 22 23 24 25 26 28 28 29 30 32 33 35 36 36 38 39 40 41 42 42 42 42
19 18 15 15 16 15 16 16 16 16 16 17 17 18 18 18 19 20 21 22 22 23 24 25 27 28 29 30 31 32 34 35 36 37 38 39 40 42 43 43 43 43 43 43
21 19 19 19 18 19 19 19 19 18 19 19 20 20 21 21 22 23 24 25 26 26 27 28 29 31 31 32 33 34 36 37 38 39 41 42 43 44 44 44 45 44 44 44
23 22 21 21 21 21 22 22 22 22 22 23 23 23 24 24 25 26 27 27 28 29 30 31 32 33 34 35 36 37 38 39 40 41 43 44 44 45 45 46 46 46 46 46
27 25 25 25 24 25 25 25 25 25 26 26 27 27 27 28 28 29 30 30 31 32 33 34 35 35 36 37 38 39 40 41 42 44 45 45 46 46 47 48 48 48 48 48
29 28 29 28 28 28 28 28 28 29 29 29 30 30 30 31 31 32 32 33 34 35 35 36 37 38 38 39 40 41 42 44 45 46 47 47 48 48 49 49 49 49 49 50
31 31 31 31 30 31 31 31 31 32 32 32 32 32 32 33 33 34 34 35 36 36 37 37 38 39 40 42 43 44 45 46 47 48 48 49 49 49 49 49 50 50 51 52
32 32 32 32 32 33 33 34 34 34 33 33 34 34 34 35 35 36 37 37 37 38 39 39 40 41 42 44 45 46 46 47 48 48 49 50 51 51 52 52 51 51 52 53
34 35 35 34 35 35 35 34 34 34 34 34 35 36 36 37 37 37 38 38 38 39 40 41 42 43 44 44 45 46 47 49 50 50 51 52 52 53 53 53 53 53 54 55
35 35 35 35 34 35 35 35 35 35 36 36 36 36 37 37 38 38 38 39 39 40 41 42 43 44 45 46 47 48 50 51 51 52 53 54 54 55 55 55 55 56 56 57
35 36 36 35 35 35 36 36 36 36 37 37 38 38 39 39 40 40 40 41 42 42 43 44 45 46 47 48 50 51 53 54 54 54 55 55 56 57 57 57 57 58 58 59
35 35 35 36 36 36 36 36 37 37 37 38 39 39 40 41 41 41 42 43 43 44 45 46 47 49 50 52 53 54 55 56 56 56 57 57 57 58 58 59 59 60 60 60
36 36 36 36 36 36 37 37 38 38 39 39 39 40 41 42 42 43 44 45 45 46 47 49 50 52 53 54 56 56 57 57 58 59 59 59 59 59 60 60 60 60 60 59
38 38 38 38 38 38 39 39 40 41 41 41 41 42 42 43 44 45 46 47 48 49 50 52 53 54 55 56 57 58 59 59 60 61 61 61 61 61 60 60 60 60 59 59
40 40 40 41 41 41 41 41 42 42 43 44 44 44 44 45 46 47 48 49 50 51 52 53 54 56 57 58 59 60 61 61 62 62 62 62 62 61 61 60 59 59 58 57
42 42 42 43 43 43 43 44 44 45 45 45 45 46 46 47 48 49 51 51 52 53 54 55 57 58 59 60 61 62 62 63 62 62 62 62 61 61 60 59 58 57 56 55
44 45 45 45 45 45 46 46 47 47 47 47 47 48 49 50 50 51 52 53 55 56 57 58 59 60 61 62 63 64 64 63 62 62 61 61 60 59 58 57 56 55 54 53
46 46 47 47 47 48 48 48 48 48 49 49 50 51 51 52 53 54 55 56 57 58 59 60 61 63 64 64 64 64 63 62 61 60 59 59 57 56 55 54 53 53 52 50
50 49 49 49 49 50 50 50 51 51 51 52 53 53 54 55 55 56 57 58 59 60 61 62 63 64 64 64 63 62 61 59 58 57 57 56 54 53 52 51 50 49 47 46
52 52 52 52 51 51 52 53 53 53 54 54 55 56 57 57 58 59 59 61 61 62 63 63 64 63 63 62 61 59 58 56 54 54 53 52 51 50 49 48 47 46 45 44
54 54 55 55 54 54 54 55 55 56 56 57 57 58 59 59 60 61 61 62 62 62 62 62 61 60 59 58 57 55 53 52 51 51 51 50 49 47 46 45 44 44 43 42

GEFSNGP_500_meanwind_138.txt.gz
Wind_Speed
10 9 9 9 10 11 11 10 10 9 10 10 11 11 11 11 10 10 9 9 9 8 9 9 9 9 9 10 11 11 12 13 14 15 17 17 19 20 21 22 24 24 25 26
11 12 11 11 10 11 11 11 11 11 10 11 12 12 11 11 11 10 10 10 9 10 10 10 10 10 10 11 13 13 14 15 16 17 18 20 21 23 23 24 25 26 27 28
12 13 13 11 10 11 11 11 12 12 11 11 12 12 12 12 11 10 10 10 10 11 11 11 11 11 12 13 14 15 15 17 18 19 20 22 23 24 26 26 27 28 29 31
14 15 15 11 12 13 13 13 13 12 12 12 13 13 12 12 12 11 11 11 11 12 12 13 13 14 14 15 16 17 18 19 20 21 23 24 26 27 28 28 29 30 32 33
15 15 13 12 14 15 15 13 14 14 13 14 13 12 12 12 12 12 12 13 13 13 14 15 15 16 17 17 18 19 20 21 22 24 25 27 28 29 30 31 32 33 34 35
17 16 14 13 15 16 16 14 15 15 15 14 14 13 13 14 14 14 14 15 15 16 16 17 18 19 20 20 21 22 22 23 25 27 28 29 30 31 32 33 34 35 36 37
18 17 15 14 16 16 16 14 15 15 15 15 15 15 15 15 16 16 16 16 17 18 19 20 21 21 22 23 23 24 25 26 28 29 30 32 33 33 35 35 36 37 38 40
19 19 16 17 17 17 16 17 17 17 17 17 17 17 17 17 18 18 18 19 19 20 21 22 23 24 25 25 26 26 28 29 31 32 33 34 35 36 37 38 38 40 41 42
20 20 20 19 19 19 19 19 19 19 19 19 20 20 20 20 20 20 21 21 22 22 23 24 25 26 27 28 29 29 31 32 34 34 35 36 37 38 39 40 41 42 43 43
22 22 22 22 22 22 23 22 22 22 22 22 22 22 22 22 22 23 23 24 24 25 25 26 27 28 29 30 31 32 34 35 35 36 37 38 39 40 41 42 43 44 44 45
24 23 24 24 25 25 25 25 25 25 25 25 25 25 25 25 26 26 27 27 27 27 28 29 29 31 32 33 34 35 35 36 37 38 39 40 40 41 43 44 44 45 46 46
26 25 26 26 26 27 27 27 27 28 28 28 28 28 28 28 28 29 29 29 30 30 31 31 32 32 34 35 36 37 37 38 39 39 40 41 42 43 45 45 46 47 47 48
28 27 28 27 28 29 29 29 30 30 30 30 30 30 30 30 30 30 31 31 32 32 33 33 34 35 35 36 37 38 39 40 41 41 42 43 44 45 46 47 48 48 49 50
31 30 29 29 29 29 30 30 31 31 31 32 32 32 32 32 32 32 33 33 33 34 35 35 36 36 37 38 38 39 41 42 42 43 44 45 46 47 48 49 49 50 51 52
34 34 33 32 31 31 32 32 32 32 32 33 33 33 34 34 34 34 35 35 35 36 36 37 37 38 39 40 40 41 42 43 44 45 46 47 49 49 50 51 51 52 53 54
36 36 36 35 35 34 34 34 34 33 34 34 34 34 35 35 36 36 37 37 37 37 38 38 39 40 41 41 42 43 44 45 46 47 48 49 50 50 52 53 54 55 55 56
37 37 37 37 37 37 37 37 37 36 36 36 36 37 37 37 38 38 38 39 39 39 40 40 41 42 43 44 44 45 46 47 48 49 50 51 51 52 54 55 56 56 57 58
39 39 39 39 40 39 39 39 40 40 40 40 40 40 40 40 40 41 41 41 41 41 42 43 44 44 45 45 46 47 47 48 49 50 51 52 54 54 56 57 57 58 59 60
40 40 41 41 42 42 42 42 42 42 42 42 42 42 42 43 43 43 43 43 43 43 44 45 46 46 47 47 48 49 50 51 52 53 53 54 55 57 59 60 60 60 61 62
40 40 41 42 42 42 42 42 43 43 43 43 44 44 44 44 45 45 45 45 45 46 46 47 48 49 49 50 50 51 52 53 54 55 56 57 58 59 60 61 62 62 62 62
41 41 42 42 43 43 43 44 44 45 45 45 46 46 46 46 46 47 47 47 48 48 49 50 51 51 52 52 53 54 55 56 57 58 59 59 60 61 62 62 62 62 62 62
43 44 45 45 45 45 46 46 47 47 48 48 48 48 49 49 50 50 50 50 50 51 52 52 53 54 54 55 56 57 57 58 59 60 61 61 62 63 63 62 62 62 62 61
46 46 47 47 47 47 47 47 47 48 49 50 50 51 52 52 53 53 53 53 54 54 54 55 55 56 56 57 58 58 59 60 61 62 62 63 63 63 63 62 62 61 60 59
47 48 48 48 49 50 50 50 50 50 51 51 52 53 53 54 54 55 56 56 56 56 56 57 57 57 58 59 59 60 60 61 62 63 63 63 63 63 62 61 60 59 57 55
49 50 50 50 50 51 51 52 53 53 53 53 54 54 55 55 55 56 57 57 57 58 58 58 59 59 60 60 60 61 62 62 63 63 62 62 62 61 59 58 56 55 53 51
51 51 52 53 53 53 53 53 54 54 55 55 55 55 56 56 57 57 57 58 58 59 59 59 60 60 61 62 63 63 63 62 62 61 61 60 59 57 56 54 53 52 50 48
52 52 53 53 54 55 56 56 56 56 57 57 58 57 57 57 58 58 58 58 58 59 60 60 61 62 63 63 63 62 62 61 60 60 59 57 56 54 53 52 51 49 47 46

GEFSNGP_500_meanwind_144.txt.gz
Wind_Speed
9 9 10 10 10 10 11 11 12 11 11 12 12 12 12 12 12 11 11 11 11 11 11 11 11 11 10 10 9 9 9 9 9 10 10 11 11 13 14 15 16 17 18 19
10 10 10 10 11 11 11 12 13 13 12 13 14 13 13 13 12 12 12 12 12 13 12 12 12 12 12 12 11 11 11 11 12 12 13 13 14 15 16 17 18 18 19 20
12 12 11 10 11 12 12 12 13 13 13 14 15 14 15 14 13 13 13 13 13 13 13 13 13 13 13 13 13 13 12 13 14 14 15 15 16 17 18 19 19 20 21 22
13 14 13 12 13 13 13 14 14 14 13 14 15 15 15 15 14 14 14 14 14 13 14 13 14 14 14 14 14 14 15 14 15 16 16 17 18 19 20 22 23 23 25 26
15 15 13 13 14 14 15 14 15 15 15 15 15 15 15 15 14 14 14 14 14 14 14 14 14 14 15 15 15 16 16 17 17 18 18 20 21 22 23 24 26 27 28 28
16 16 15 14 16 16 16 15 16 16 16 16 16 15 15 15 15 15 14 14 14 14 14 15 15 16 16 16 17 18 18 18 19 20 21 23 24 25 26 27 28 29 30 30
18 18 16 16 17 17 17 17 17 17 16 16 16 16 17 17 16 16 16 16 16 16 16 16 17 17 18 19 19 20 21 22 22 23 25 26 27 28 29 30 31 31 32 33
20 19 17 18 18 17 17 18 18 18 18 17 18 18 18 18 18 18 18 17 18 18 18 19 19 20 20 21 22 23 24 25 26 27 28 29 30 31 32 32 33 33 34 35
21 20 20 20 19 19 19 18 18 18 18 18 19 19 19 20 20 20 19 19 19 20 20 21 21 22 23 24 25 25 26 28 28 29 30 31 32 33 33 34 35 35 36 37
22 21 21 21 21 21 20 20 19 19 19 19 20 20 21 21 21 21 20 21 21 22 22 23 24 25 25 26 27 28 29 30 31 32 33 34 34 35 36 36 37 37 38 39
23 23 23 23 22 22 22 21 21 21 21 21 21 21 22 22 22 23 23 23 23 23 24 25 26 27 28 28 29 30 31 32 33 34 35 36 37 37 38 38 39 40 40 41
24 25 25 24 24 23 23 23 23 23 22 23 23 23 23 24 24 25 25 25 25 25 26 27 28 29 30 31 32 33 33 34 35 36 37 38 38 38 39 40 41 41 42 43
27 27 26 26 26 25 25 25 25 25 25 25 26 26 26 26 26 27 27 27 27 28 28 29 29 30 32 33 34 34 35 36 37 37 38 39 39 40 40 41 42 43 44 45
28 28 28 27 27 27 28 28 28 28 28 28 28 29 29 29 29 29 29 30 30 30 30 31 31 32 33 34 34 36 37 38 38 39 39 40 41 42 42 43 44 45 46 47
30 30 30 30 30 30 30 30 30 30 31 31 31 31 31 31 31 32 32 32 32 32 32 33 34 34 35 36 36 36 37 39 40 40 41 42 42 43 44 45 46 47 48 50
31 31 32 32 32 32 32 32 32 32 32 32 33 33 33 34 34 34 34 34 35 35 36 36 36 37 37 38 38 39 39 40 42 43 43 44 45 46 47 48 49 50 51 52
32 32 33 33 33 33 33 33 33 33 33 34 34 35 35 35 36 37 37 38 38 39 39 39 39 40 40 41 41 42 43 43 44 45 46 47 47 48 49 50 50 51 52 53
34 34 34 35 35 34 34 34 35 35 35 36 36 36 37 37 38 39 40 41 42 42 42 42 43 43 43 44 44 45 45 46 47 47 47 48 49 50 51 51 52 53 54 55
36 36 36 36 36 36 36 36 36 37 37 37 38 38 38 39 40 40 41 42 43 43 44 44 45 45 46 46 47 47 47 48 48 49 49 50 51 51 52 53 54 55 56 57
37 37 37 38 38 38 39 39 39 39 39 40 40 40 41 42 42 43 44 44 45 46 46 47 47 48 48 48 49 50 50 50 51 52 52 53 53 54 54 55 56 57 58 58
39 39 39 39 39 40 40 40 41 41 41 42 42 42 43 44 44 45 46 46 47 47 48 49 49 50 50 50 51 51 52 53 53 54 54 54 55 56 56 57 58 58 59 59
40 40 41 41 41 42 42 42 43 43 43 44 44 45 45 46 47 47 48 48 49 49 50 51 51 52 52 53 53 53 53 54 54 55 55 56 56 57 58 59 59 60 60 60
40 41 41 42 43 43 43 44 44 44 44 45 45 45 46 47 47 48 49 49 50 50 51 52 52 53 54 54 54 54 54 55 56 56 57 57 58 58 59 59 60 60 60 59
41 42 42 43 43 44 44 45 45 45 46 46 47 47 48 48 49 49 50 51 51 52 53 53 54 54 55 56 56 56 56 57 57 57 58 58 58 58 59 59 59 59 59 57
42 42 43 43 44 44 45 46 46 47 47 48 49 50 50 51 51 52 52 52 53 53 54 54 54 55 55 55 55 56 56 56 56 56 57 57 58 58 58 58 58 58 57 56
44 44 44 44 44 44 45 46 47 47 49 50 50 51 51 52 53 53 53 53 53 53 54 53 53 53 53 53 53 54 55 56 56 56 56 57 57 57 57 57 57 57 56 55
45 45 45 45 45 46 46 47 48 48 49 50 51 51 51 52 52 53 53 53 53 53 53 53 53 53 53 53 54 54 55 56 56 56 55 55 56 56 57 56 56 55 54 53

GEFSNGP_500_meanwind_150.txt.gz
Wind_Speed
9 8 8 9 9 10 10 10 10 11 12 12 12 11 12 12 11 11 12 12 12 12 12 12 12 11 11 11 11 11 11 10 10 10 10 10 10 10 11 12 12 13 13 15
10 10 9 10 10 10 11 11 12 13 14 14 14 14 14 13 12 12 12 12 12 12 12 12 12 12 12 12 12 12 12 12 11 11 12 12 12 13 14 14 14 15 16 17
11 11 11 10 10 11 12 12 13 13 14 15 15 15 15 14 13 13 13 13 13 13 13 13 13 13 13 13 14 13 13 13 13 13 13 14 15 15 15 16 16 17 18 19
13 12 12 11 12 13 13 13 13 14 15 15 16 16 15 15 14 14 13 14 14 14 14 14 14 14 14 14 14 14 14 14 14 15 16 16 17 17 17 18 19 19 20 21
15 14 14 13 14 14 14 14 14 14 14 15 15 16 16 15 15 15 14 14 15 15 15 15 15 15 16 16 16 15 15 15 16 16 17 18 18 18 19 20 20 21 22 23
17 16 15 15 16 15 15 15 16 15 15 15 15 16 16 15 16 16 16 15 16 16 16 17 17 17 17 17 17 16 17 17 18 18 19 20 20 20 21 22 22 23 24 25
18 18 17 18 18 16 16 17 17 16 16 16 17 17 16 16 17 16 16 16 16 16 17 17 17 17 17 17 18 19 19 19 20 20 21 21 22 23 24 24 25 26 26 27
20 20 20 21 20 19 19 19 19 18 18 18 18 18 18 18 18 17 17 18 18 18 18 18 18 18 19 19 20 21 21 21 22 22 23 24 24 25 26 26 27 28 28 29
22 23 23 22 22 21 20 21 20 20 19 19 20 19 19 19 19 19 19 19 19 19 19 20 20 20 21 22 22 22 23 23 23 24 25 26 26 27 27 28 29 29 30 31
24 24 24 24 24 23 22 22 21 20 20 20 20 20 19 19 19 19 19 20 20 20 20 21 21 22 23 23 24 24 24 25 26 26 27 27 28 29 29 30 31 32 33 34
25 25 26 26 26 25 24 23 23 22 22 21 21 21 20 20 20 21 21 21 21 22 22 22 22 23 24 25 25 26 26 27 28 28 29 30 30 31 32 33 35 35 36 37
27 27 28 28 27 26 25 25 24 24 23 23 23 22 22 22 22 22 22 22 23 23 24 24 25 25 26 27 28 28 29 29 30 31 31 32 33 34 35 36 37 38 39 40
30 30 30 29 29 28 27 27 26 25 25 24 24 24 24 24 24 24 24 24 25 25 26 27 27 28 29 30 30 31 32 33 33 34 34 35 36 37 38 39 40 41 42 42
31 31 31 31 30 29 28 28 28 27 27 26 26 26 26 26 26 26 27 27 27 28 28 29 30 30 31 32 33 33 34 35 36 36 37 38 39 40 41 42 42 43 43 44
31 31 32 31 31 30 30 30 30 30 29 29 29 29 29 29 29 29 29 30 30 30 31 32 32 33 33 34 35 36 36 37 38 38 39 40 42 42 43 44 45 45 45 45
32 32 32 32 31 31 32 32 31 31 31 31 31 31 31 31 31 31 32 32 32 33 34 34 35 35 36 37 38 38 39 40 40 41 42 43 44 45 45 46 47 47 47 47
33 32 32 32 32 33 33 34 33 33 33 33 32 32 33 33 33 34 34 35 35 36 36 37 37 38 39 40 40 41 42 42 43 44 45 45 46 47 47 48 48 48 49 49
34 34 34 34 34 34 34 34 34 34 34 34 34 35 35 36 36 36 37 38 38 39 39 39 40 41 42 42 43 44 44 45 46 47 48 48 48 49 50 50 50 51 51 52
36 36 36 36 36 36 36 35 35 36 36 37 37 37 38 38 38 39 40 40 41 41 42 42 43 44 44 45 45 46 46 47 48 49 49 50 50 51 51 52 52 53 54 54
37 38 38 38 38 38 38 38 37 38 38 38 39 39 40 40 40 41 41 42 43 44 44 45 45 45 46 46 47 47 48 49 49 49 50 51 51 52 53 53 53 54 55 56
38 38 38 38 38 39 39 39 39 39 40 40 41 41 42 42 43 43 43 44 45 45 46 46 46 47 47 48 48 49 50 51 51 52 52 53 53 54 54 55 55 56 56 57
38 38 39 39 39 39 40 40 40 41 41 42 43 43 44 45 45 45 45 46 46 47 47 47 48 49 50 50 51 52 52 53 54 54 55 55 55 56 56 56 56 56 56 56
39 39 39 39 40 40 41 41 41 42 42 43 44 44 45 45 46 47 47 47 47 48 48 49 50 51 52 52 53 54 55 55 56 56 56 56 56 56 56 56 56 56 56 57
39 38 38 39 39 40 41 42 42 43 43 43 44 44 45 46 46 46 47 47 48 49 50 51 51 52 53 54 54 55 55 56 56 56 56 55 55 56 56 56 56 56 56 57
39 39 40 40 40 41 42 42 43 43 44 44 45 45 46 47 47 48 48 49 50 50 51 52 52 53 54 54 54 55 55 55 55 55 55 55 55 55 56 56 56 56 56 57
39 40 40 41 42 42 42 43 44 44 45 45 46 46 47 48 49 49 49 50 50 51 51 52 52 53 53 54 54 55 55 55 55 55 55 55 55 55 55 56 56 56 55 55
39 40 40 40 41 42 42 43 43 44 45 46 46 47 48 48 49 49 50 50 50 51 52 52 52 53 53 54 54 55 55 55 54 54 54 54 54 54 54 54 54 54 53 52

GEFSNGP_500_meanwind_156.txt.gz
Wind_Speed
8 8 8 8 8 8 8 7 7 7 8 8 8 7 7 7 7 7 8 10 11 11 12 12 12 12 12 12 11 11 11 10 10 10 10 10 10 10 10 10 11 11 11 11
9 9 9 9 8 9 9 8 9 9 10 10 9 9 8 8 8 8 9 10 10 11 12 12 13 13 13 13 12 12 12 11 11 12 12 11 11 11 11 11 12 12 13 13
11 11 11 10 10 10 10 10 10 10 10 11 10 9 9 9 9 9 9 9 10 12 13 13 13 13 13 13 13 13 13 12 12 12 12 13 13 12 12 13 13 14 15 15
14 13 13 11 11 11 11 10 11 10 10 10 10 10 10 11 11 11 11 10 11 12 13 14 14 14 14 14 13 14 14 14 13 13 14 14 15 15 15 15 15 16 16 16
16 16 14 13 13 13 12 12 12 11 11 11 11 12 12 12 12 12 12 12 12 13 13 14 14 14 14 14 14 14 15 15 15 15 15 15 16 16 17 17 17 17 18 18
18 18 16 14 14 15 15 14 12 11 11 11 12 13 13 13 13 13 13 13 13 13 13 14 14 14 15 15 15 16 16 17 17 17 17 17 18 18 18 19 19 20 20 20
19 19 17 16 16 15 15 13 12 12 12 12 12 13 14 14 14 14 14 14 14 14 14 14 15 15 16 16 17 17 18 18 18 18 19 19 19 20 20 20 21 21 22 22
20 20 18 17 17 17 15 15 14 14 13 13 13 14 15 15 16 16 16 15 15 15 15 15 15 16 16 17 18 18 19 19 19 20 20 21 21 21 22 23 23 23 24 24
22 20 19 18 18 18 17 17 16 15 15 15 16 16 16 16 16 17 17 17 17 16 16 16 16 17 17 18 19 20 21 21 21 22 22 23 23 24 24 25 25 25 26 27
23 22 22 21 21 20 19 18 17 17 17 17 17 17 17 17 18 18 19 19 19 18 19 19 19 20 20 20 21 22 22 23 24 24 25 25 26 27 27 28 28 29 29 30
25 24 24 24 23 22 21 20 20 20 20 20 20 20 20 19 19 20 20 20 20 20 20 21 21 21 21 22 23 23 24 25 25 26 27 28 28 29 30 31 32 32 33 34
27 26 26 26 25 25 24 24 23 22 22 22 22 22 22 21 21 21 22 22 23 23 23 23 23 23 24 24 25 25 26 27 28 28 29 30 31 32 33 34 35 36 37 37
28 27 28 27 27 27 26 25 25 25 25 25 24 24 23 23 24 24 24 24 24 25 25 25 25 25 26 27 27 28 28 29 30 31 31 32 33 34 35 36 37 38 39 41
29 29 28 28 28 27 27 27 27 26 26 27 26 26 26 26 26 25 26 26 26 26 26 27 27 28 28 28 29 30 31 31 32 33 34 35 35 36 37 38 39 40 42 43
29 29 28 28 28 28 28 28 27 27 27 28 28 28 28 27 27 28 28 28 28 28 28 29 29 30 30 31 32 32 33 34 35 35 36 37 38 39 39 40 42 43 43 44
30 30 29 28 28 29 29 29 29 29 29 29 29 29 29 29 29 30 30 30 30 30 31 31 32 32 33 33 34 35 36 36 37 38 39 40 40 41 43 43 44 45 46 46
31 31 30 30 30 30 30 30 30 30 30 30 30 30 30 31 31 31 31 32 32 32 33 34 34 35 36 36 37 37 38 39 40 40 41 42 43 44 45 46 47 47 48 49
32 32 32 32 32 31 31 31 31 31 31 31 31 31 32 32 32 32 33 34 35 35 35 36 37 38 38 39 39 40 40 41 42 43 44 45 45 46 47 48 48 49 49 49
33 33 33 34 33 33 32 32 31 31 32 32 32 32 33 33 34 35 35 36 36 37 37 38 39 39 40 41 42 43 43 44 44 45 46 46 47 47 48 48 49 49 50 50
34 34 34 34 34 34 34 34 34 33 33 34 34 35 35 35 36 37 37 38 38 39 39 40 40 41 42 43 44 44 45 45 46 47 47 47 48 48 49 49 49 50 51 52
35 35 35 35 35 35 35 35 35 35 35 35 36 36 37 37 37 38 39 39 40 41 41 42 42 43 44 44 45 46 46 47 47 47 48 48 49 49 49 50 51 52 52 53
34 34 35 35 35 35 35 36 36 36 36 37 37 37 38 38 38 39 40 41 41 42 43 43 44 44 45 46 46 47 47 48 48 49 49 50 50 51 52 52 52 53 54 55
35 35 36 36 36 36 36 36 37 37 37 37 38 39 39 39 40 40 41 42 43 43 44 44 45 45 46 46 47 47 48 48 49 50 50 51 52 52 52 53 54 54 54 55
36 36 36 36 36 36 36 36 37 37 37 38 38 38 39 39 40 41 42 42 43 44 44 45 45 45 46 47 48 48 49 50 51 51 51 51 51 52 53 54 54 55 55 56
36 36 36 36 36 36 36 36 36 36 37 37 37 38 39 39 40 41 41 42 42 43 44 45 46 46 47 48 48 49 50 51 51 51 51 52 52 53 54 54 55 55 55 56
35 35 36 36 36 36 36 36 36 36 37 37 38 39 39 40 41 41 42 43 43 44 45 46 46 47 48 49 49 50 50 51 52 52 52 53 54 54 55 55 55 55 55 55
35 35 36 36 37 37 37 37 37 37 38 39 39 40 40 41 41 42 43 43 44 45 46 47 47 48 49 49 50 50 51 51 52 52 52 53 53 53 54 54 54 54 53 53

GEFSNGP_500_meanwind_162.txt.gz
Wind_Speed
8 8 8 8 8 9 8 8 8 7 8 8 9 9 9 9 9 10 10 11 11 11 12 11 11 12 12 12 12 13 12 12 12 12 12 12 12 12 12 12 12 12 12 12
10 9 8 8 9 9 9 9 8 8 8 9 10 10 10 10 10 11 11 11 12 12 12 12 12 12 12 13 13 13 13 13 13 13 13 13 13 13 13 13 13 13 14 13
11 10 10 9 9 9 9 9 9 9 9 9 10 11 11 11 11 12 12 12 13 12 12 13 13 13 13 13 13 14 14 14 14 14 14 14 14 14 14 15 14 14 15 15
14 13 13 10 11 11 11 11 10 10 10 11 11 12 12 13 12 13 13 13 14 14 14 14 14 14 14 14 14 14 14 15 14 14 15 15 15 16 16 16 16 16 16 17
17 16 14 13 13 13 13 12 11 11 12 12 12 13 13 13 13 13 13 13 14 15 15 15 15 15 15 15 15 15 16 16 16 16 16 17 17 17 18 18 18 18 18 19
18 17 15 13 14 15 14 12 12 12 12 13 13 13 13 14 14 14 14 14 14 15 15 16 16 16 16 16 16 17 17 17 18 18 18 18 18 19 19 19 19 19 20 20
19 18 16 15 16 16 15 13 14 14 14 14 14 14 14 14 15 15 16 16 15 16 16 16 17 17 17 17 17 18 18 18 19 19 19 19 20 20 20 20 20 21 21 22
21 20 16 16 17 17 16 16 16 15 16 15 15 15 15 15 16 16 16 17 17 17 17 17 18 18 18 19 19 18 19 19 20 21 21 21 22 22 22 22 23 23 23 24
22 20 18 18 19 18 18 17 17 17 17 17 17 17 17 17 17 17 17 18 18 18 18 18 18 19 20 20 20 19 20 21 21 22 23 23 23 24 24 25 25 26 26 27
24 22 21 20 20 20 20 20 20 20 19 19 19 19 18 18 18 18 18 18 19 19 19 19 20 20 20 21 21 21 21 22 23 24 25 25 26 26 26 27 27 28 29 30
25 23 22 22 22 22 22 22 22 22 22 22 22 21 21 20 20 19 19 19 19 19 20 20 21 21 21 22 23 23 24 24 25 26 26 27 28 28 29 29 30 31 31 32
27 26 25 24 24 24 24 24 24 24 24 24 23 23 23 22 22 21 21 21 21 21 21 22 22 22 23 24 24 25 26 27 27 28 29 29 30 30 31 32 32 33 34 35
29 28 27 26 26 26 26 26 25 25 24 24 24 24 24 24 23 23 23 23 24 24 24 24 24 25 25 26 26 27 28 29 30 30 31 31 32 32 33 34 35 36 36 37
30 30 29 28 28 28 27 27 27 26 25 25 25 25 25 26 26 26 26 26 26 26 26 26 26 27 27 28 28 29 30 30 31 32 32 33 33 34 35 36 36 37 38 39
32 32 31 31 30 29 29 28 28 27 27 27 27 27 27 27 28 28 28 28 28 28 28 28 28 29 29 30 30 30 31 31 32 32 33 34 35 35 36 37 38 39 40 41
33 34 33 32 31 30 30 30 29 29 29 29 28 28 28 28 29 29 30 30 30 30 30 30 30 30 31 31 31 32 32 33 33 34 34 35 37 38 39 40 41 42 43 43
33 33 33 32 32 31 31 30 30 30 30 30 30 29 29 29 29 29 30 30 31 31 31 31 31 31 32 32 33 33 34 35 35 36 37 38 39 40 41 42 43 44 44 45
34 34 34 34 33 33 32 32 31 31 31 31 30 30 30 29 29 30 30 30 31 31 32 32 32 33 33 34 34 35 36 36 37 38 39 40 41 42 43 44 44 45 45 45
34 33 33 34 34 34 33 33 33 32 32 32 32 32 32 32 31 31 31 32 32 32 33 33 34 34 35 35 36 37 38 38 39 40 41 42 43 44 44 45 46 46 47 47
35 34 34 34 33 33 33 33 34 34 33 33 33 33 33 33 33 33 33 33 34 34 34 35 36 36 37 38 39 40 40 41 42 43 44 44 45 45 46 46 47 48 48 49
35 34 34 33 33 33 33 33 34 34 35 35 34 34 34 34 34 35 35 35 35 36 36 37 38 39 40 41 41 42 42 43 44 45 46 46 47 47 47 48 49 49 50 50
35 35 34 34 34 34 33 33 34 34 34 35 34 34 34 35 35 35 36 36 37 37 38 38 39 40 41 41 42 43 44 45 46 46 46 47 47 48 48 49 50 51 52 52
34 34 34 35 34 34 33 33 33 33 33 34 34 34 34 35 35 36 37 37 38 38 39 39 40 40 41 41 42 43 44 45 46 46 46 47 48 49 50 50 51 52 53 53
34 34 34 34 34 33 33 33 33 33 34 34 35 35 35 36 36 37 38 38 38 39 39 40 40 41 41 42 43 44 44 45 45 46 47 48 49 49 50 51 52 53 53 53
35 35 35 35 34 34 34 34 34 34 35 35 36 36 36 37 37 37 38 38 39 39 40 41 41 42 43 43 44 45 45 46 47 47 48 49 50 50 51 52 52 53 53 53
37 36 36 36 36 35 35 35 35 35 36 36 37 38 38 38 39 39 40 40 41 41 42 43 43 44 44 45 45 46 47 47 47 48 48 49 50 50 51 51 52 52 53 53
37 37 37 37 37 37 37 37 37 37 38 38 38 39 39 39 40 40 40 41 42 42 43 43 44 44 45 45 46 46 47 47 47 48 48 49 50 50 50 51 51 51 51 52

GEFSNGP_500_meanwind_168.txt.gz
Wind_Speed
8 8 8 9 8 9 8 8 9 8 8 8 9 8 8 9 9 8 8 9 11 11 12 12 11 11 11 11 11 11 12 12 13 12 12 13 13 13 13 13 13 13 13 13
9 9 9 9 9 10 9 9 9 9 9 9 10 9 9 9 9 9 9 9 10 11 13 13 12 12 12 12 12 13 14 14 13 13 13 13 13 14 14 14 14 14 14 14
11 11 10 9 10 10 10 10 10 10 10 9 9 10 10 10 10 10 11 11 11 12 12 13 13 13 13 13 14 14 14 14 14 14 13 14 14 15 15 15 15 15 15 15
13 12 12 10 11 11 11 10 11 11 11 11 10 10 11 11 11 11 11 12 13 13 13 14 15 15 15 14 14 15 15 15 15 15 15 15 15 16 16 16 16 16 16 16
15 15 13 12 12 12 12 11 12 12 12 11 11 11 11 11 12 12 12 12 13 13 14 14 15 16 16 15 15 16 16 16 16 16 16 16 17 17 17 17 17 17 16 17
17 16 15 13 13 14 13 13 13 14 14 13 12 12 12 12 12 12 13 13 13 13 13 14 15 17 17 17 17 17 17 17 17 17 18 18 18 18 18 18 17 17 17 18
19 18 17 15 15 15 14 13 14 15 15 14 14 14 14 14 13 13 13 14 14 14 14 14 14 15 16 17 17 18 18 18 18 18 18 19 20 19 19 19 19 19 19 20
21 20 18 16 16 16 15 16 16 16 16 15 16 16 16 16 15 14 14 15 15 15 15 16 16 16 17 17 17 17 17 18 18 19 20 20 21 21 20 20 21 21 22 22
22 21 19 18 18 18 18 18 18 17 17 17 17 18 18 17 17 16 16 16 16 17 17 17 18 18 18 18 18 18 18 19 19 20 20 20 20 20 21 22 23 23 23 24
24 22 21 20 20 19 19 19 20 19 19 19 19 19 19 19 18 18 18 18 18 18 18 18 18 18 19 18 18 19 19 20 21 21 21 21 21 22 23 23 24 25 25 26
25 23 23 22 22 22 21 21 21 21 21 21 21 20 20 20 20 20 20 19 19 19 19 19 19 19 19 19 20 20 21 21 22 22 22 22 23 24 24 25 26 27 28 29
26 25 25 24 24 24 23 23 22 22 22 22 22 22 21 21 21 21 21 21 21 20 20 20 20 21 21 21 21 22 22 23 23 24 24 25 25 26 26 27 28 29 29 30
27 27 26 25 25 25 24 24 24 24 24 23 23 23 22 22 22 22 22 23 22 22 22 22 22 23 23 23 23 24 24 25 25 25 26 26 27 28 28 29 29 30 31 31
29 28 27 27 27 26 26 25 25 25 25 24 24 24 24 24 24 24 24 24 24 24 24 24 24 25 25 25 26 26 26 27 27 27 28 28 29 29 30 30 31 31 32 33
30 29 29 28 27 27 27 27 26 26 26 26 26 26 26 26 26 26 26 26 26 26 26 26 26 27 27 27 27 28 28 28 28 29 29 30 30 30 31 31 32 33 34 35
31 31 31 29 29 28 28 27 27 27 27 28 27 28 28 28 27 27 27 27 27 28 28 28 28 28 28 28 29 29 29 29 30 30 30 31 31 31 32 33 34 35 36 37
32 32 31 31 30 30 29 28 28 28 28 29 29 29 29 28 29 29 28 29 29 29 29 29 29 29 29 30 30 30 31 31 31 32 32 32 33 33 34 35 36 36 37 38
33 33 32 32 30 30 29 29 29 29 29 29 29 29 29 29 29 29 30 30 30 30 30 30 30 30 30 31 31 31 31 32 32 33 33 34 34 35 36 37 38 38 39 40
33 33 33 32 31 31 31 30 30 30 29 29 30 29 29 29 29 30 30 31 31 31 31 31 31 32 32 31 32 32 32 33 34 35 36 36 37 38 39 39 40 41 41 42
33 33 33 32 32 32 31 31 30 30 30 30 30 30 30 30 31 31 31 31 32 32 32 32 33 33 33 33 33 33 34 35 36 36 37 38 39 40 40 41 42 42 43 43
33 33 32 32 32 32 32 32 31 31 31 31 31 31 31 31 31 32 32 32 32 32 32 32 33 33 33 34 34 35 35 36 37 37 38 39 40 41 42 42 43 44 44 45
34 33 32 32 32 32 32 32 32 32 32 32 32 33 33 32 32 32 32 32 32 32 32 32 33 34 34 35 36 36 37 37 38 39 40 40 41 42 43 43 44 44 45 46
34 34 33 32 31 31 32 32 32 32 31 32 32 32 32 32 32 32 32 32 32 33 33 33 34 35 36 37 37 38 38 39 39 40 40 41 42 42 43 43 44 45 46 47
34 34 33 33 32 31 31 31 32 32 32 32 32 32 32 32 32 32 32 32 33 33 33 34 35 36 36 37 38 38 39 39 40 40 41 41 42 43 44 44 45 47 48 48
34 34 33 32 32 31 31 31 31 31 31 31 32 32 32 32 32 32 33 33 34 35 35 35 35 36 37 37 38 39 39 40 41 42 42 43 44 45 45 46 47 47 48 49
35 34 33 32 32 32 32 32 31 31 31 31 32 32 32 32 33 33 33 34 35 35 36 36 36 37 38 38 39 40 41 41 42 43 43 44 45 46 46 47 47 48 49 49
34 33 33 33 32 32 32 32 32 32 31 31 31 32 32 33 34 34 34 35 35 36 37 37 38 38 38 39 40 41 42 42 43 44 44 45 45 45 46 46 47 47 48 49